Weather History for Clinton, OK

Change the Weather History Date:

Thursday, June 5, 2014

  Actual Average (KCSM) Record (KCSM)
Temperature  
Mean Temperature 83 °F -  
Max Temperature 93 °F 84 °F 104 °F (2006)
Min Temperature 73 °F 61 °F 50 °F (1998)
Cooling Degree Days 18    
Growing Degree Days 33 (Base 50)    
Moisture  
Dew Point 60 °F    
Average Humidity 46    
Maximum Humidity 69    
Minimum Humidity 26    
Precipitation  
Precipitation 0.00 in - - ()
Sea Level Pressure  
Sea Level Pressure 29.75 in    
Wind  
Wind Speed 11 mph (SSE)    
Max Wind Speed 18 mph    
Max Gust Speed 23 mph    
Visibility 10 miles    
Events      
Averages and records for this station are not official NWS values.
T = Trace of Precipitation, MM = Missing Value Source: NWS Daily Summary

Daily Weather History Graph

Daily Weather History Graph

Search for Another Location

Airport:

Trip Planner

Search our weather history database for the weather conditions in past years. The results will help you decide how hot, cold, wet, or windy it might be!

Date:

Astronomy

Jun. 05, 2014 Rise Set
Actual Time 6:20 AM CDT 8:48 PM CDT
Civil Twilight 5:50 AM CDT 9:17 PM CDT
Nautical Twilight 5:14 AM CDT 9:54 PM CDT
Astronomical Twilight 4:33 AM CDT 10:35 PM CDT
Moon 1:26 PM CDT (6/5) 1:27 AM CDT (6/5)
Length of Visible Light 15h 27m
Length of Day
14h 27m
Waxing Crescent, 49% of the Moon is Illuminated
Jun 5
Waxing Crescent
Jun 5
First Quarter
Jun 12
Full
Jun 19
Last Quarter
Jun 27
New

Hourly Weather History & Observations

Time (CDT) Temp. Heat Index Dew Point Humidity Pressure Visibility Wind Dir Wind Speed Gust Speed Precip Events Conditions
12:15 AM 80.6 °F 81.1 °F 59.0 °F 48% 29.73 in 10.0 mi SSE 11.5 mph - N/A   Clear
12:35 AM 78.8 °F - 59.0 °F 51% 29.74 in 10.0 mi SSE 10.4 mph - N/A   Clear
12:55 AM 78.8 °F - 60.8 °F 54% 29.74 in 10.0 mi SSE 11.5 mph - N/A   Clear
1:15 AM 78.8 °F - 60.8 °F 54% 29.73 in 10.0 mi SSE 12.7 mph - N/A   Clear
1:35 AM 80.6 °F 81.5 °F 60.8 °F 51% 29.73 in 10.0 mi SSE 13.8 mph - N/A   Clear
1:55 AM 80.6 °F 81.8 °F 62.6 °F 54% 29.72 in 10.0 mi SSE 18.4 mph - N/A   Clear
2:15 AM 78.8 °F - 62.6 °F 57% 29.72 in 10.0 mi South 17.3 mph - N/A   Clear
2:35 AM 78.8 °F - 62.6 °F 57% 29.71 in 10.0 mi South 17.3 mph - N/A   Clear
2:55 AM 78.8 °F - 62.6 °F 57% 29.70 in 10.0 mi South 17.3 mph 23.0 mph N/A   Clear
3:15 AM 77.0 °F - 62.6 °F 61% 29.69 in 10.0 mi South 16.1 mph - N/A   Clear
3:35 AM 77.0 °F - 62.6 °F 61% 29.68 in 10.0 mi South 16.1 mph - N/A   Clear
3:55 AM 77.0 °F - 62.6 °F 61% 29.67 in 10.0 mi South 17.3 mph - N/A   Clear
4:15 AM 75.2 °F - 62.6 °F 65% 29.67 in 10.0 mi South 16.1 mph 23.0 mph N/A   Clear
4:35 AM 75.2 °F - 62.6 °F 65% 29.67 in 10.0 mi South 17.3 mph 23.0 mph N/A   Clear
4:55 AM 75.2 °F - 62.6 °F 65% 29.68 in 10.0 mi South 18.4 mph - N/A   Clear
5:15 AM 75.2 °F - 62.6 °F 65% 29.69 in 10.0 mi South 16.1 mph - N/A   Clear
5:35 AM 73.4 °F - 62.6 °F 69% 29.69 in 10.0 mi South 12.7 mph - N/A   Scattered Clouds
5:55 AM 73.4 °F - 62.6 °F 69% 29.72 in 10.0 mi South 10.4 mph - N/A   Scattered Clouds
6:15 AM 73.4 °F - 62.6 °F 69% 29.72 in 10.0 mi South 8.1 mph - N/A   Scattered Clouds
6:35 AM 73.4 °F - 62.6 °F 69% 29.71 in 10.0 mi South 8.1 mph - N/A   Clear
6:55 AM 73.4 °F - 62.6 °F 69% 29.71 in 10.0 mi SSE 10.4 mph - N/A   Clear
7:15 AM 73.4 °F - 62.6 °F 69% 29.72 in 10.0 mi SSE 8.1 mph - N/A   Clear
7:35 AM 73.4 °F - 62.6 °F 69% 29.73 in 10.0 mi SSW 10.4 mph - N/A   Clear
7:55 AM 73.4 °F - 62.6 °F 69% 29.74 in 10.0 mi SSW 6.9 mph - N/A   Clear
8:15 AM 73.4 °F - 62.6 °F 69% 29.74 in 10.0 mi South 4.6 mph - N/A   Clear
8:35 AM 73.4 °F - 62.6 °F 69% 29.74 in 10.0 mi South 13.8 mph - N/A   Clear
8:55 AM 77.0 °F - 62.6 °F 61% 29.74 in 10.0 mi South 16.1 mph - N/A   Clear
9:15 AM 78.8 °F - 60.8 °F 54% 29.75 in 10.0 mi South 13.8 mph - N/A   Clear
9:35 AM 80.6 °F 81.5 °F 60.8 °F 51% 29.77 in 10.0 mi SSW 12.7 mph - N/A   Clear
9:55 AM 82.4 °F 82.9 °F 60.8 °F 48% 29.77 in 10.0 mi South 13.8 mph - N/A   Clear
10:15 AM 82.4 °F 82.9 °F 60.8 °F 48% 29.77 in 10.0 mi SSW 13.8 mph - N/A   Clear
10:35 AM 86.0 °F 86.1 °F 60.8 °F 43% 29.75 in 10.0 mi South 15.0 mph - N/A   Clear
10:55 AM 86.0 °F 85.4 °F 59.0 °F 40% 29.75 in 10.0 mi SSW 11.5 mph 17.3 mph N/A   Clear
11:15 AM 87.8 °F 86.5 °F 57.2 °F 35% 29.75 in 10.0 mi South 9.2 mph - N/A   Clear
11:35 AM 87.8 °F 86.5 °F 57.2 °F 35% 29.76 in 10.0 mi SW 8.1 mph - N/A   Clear
11:55 AM 89.6 °F 87.7 °F 55.4 °F 31% 29.77 in 10.0 mi South 4.6 mph - N/A   Clear
12:15 PM 89.6 °F 87.7 °F 55.4 °F 31% 29.78 in 10.0 mi SSW 6.9 mph - N/A   Clear
12:35 PM 89.6 °F 87.7 °F 55.4 °F 31% 29.77 in 10.0 mi Calm Calm - N/A   Clear
12:55 PM 89.6 °F 88.1 °F 57.2 °F 33% 29.77 in 10.0 mi NNE 3.5 mph - N/A   Clear
1:15 PM 89.6 °F 87.7 °F 55.4 °F 31% 29.77 in 10.0 mi Calm Calm - N/A   Scattered Clouds
1:35 PM 89.6 °F 88.9 °F 59.0 °F 36% 29.78 in 10.0 mi SE 11.5 mph - N/A   Mostly Cloudy
1:55 PM 91.4 °F 89.9 °F 57.2 °F 31% 29.78 in 10.0 mi SE 11.5 mph 17.3 mph N/A   Mostly Cloudy
2:15 PM 91.4 °F 89.4 °F 55.4 °F 29% 29.78 in 10.0 mi SE 10.4 mph 16.1 mph N/A   Scattered Clouds
2:35 PM 93.2 °F 91.9 °F 57.2 °F 30% 29.78 in 10.0 mi SE 9.2 mph 18.4 mph N/A   Clear
2:55 PM 91.4 °F 89.4 °F 55.4 °F 29% 29.78 in 10.0 mi ESE 10.4 mph - N/A   Scattered Clouds
3:15 PM 93.2 °F 91.9 °F 57.2 °F 30% 29.78 in 10.0 mi SSE 15.0 mph 18.4 mph N/A   Scattered Clouds
3:35 PM 93.2 °F 91.3 °F 55.4 °F 28% 29.78 in 10.0 mi SE 9.2 mph - N/A   Scattered Clouds
3:55 PM 93.2 °F 91.3 °F 55.4 °F 28% 29.78 in 10.0 mi SE 8.1 mph 18.4 mph N/A   Scattered Clouds
4:15 PM 93.2 °F 91.3 °F 55.4 °F 28% 29.78 in 10.0 mi South 10.4 mph - N/A   Scattered Clouds
4:35 PM 91.4 °F 89.4 °F 55.4 °F 29% 29.77 in 10.0 mi SSE 11.5 mph - N/A   Scattered Clouds
4:55 PM 93.2 °F 91.3 °F 55.4 °F 28% 29.77 in 10.0 mi SSE 11.5 mph 17.3 mph N/A   Scattered Clouds
5:15 PM 93.2 °F 91.3 °F 55.4 °F 28% 29.77 in 10.0 mi South 4.6 mph - N/A   Clear
5:35 PM 93.2 °F 91.3 °F 55.4 °F 28% 29.77 in 10.0 mi South 6.9 mph 16.1 mph N/A   Scattered Clouds
5:55 PM 93.2 °F 91.3 °F 55.4 °F 28% 29.76 in 10.0 mi SSE 10.4 mph - N/A   Scattered Clouds
6:15 PM 93.2 °F 91.3 °F 55.4 °F 28% 29.76 in 10.0 mi South 9.2 mph - N/A   Scattered Clouds
6:35 PM 93.2 °F 91.3 °F 55.4 °F 28% 29.76 in 10.0 mi SSW 5.8 mph - N/A   Scattered Clouds
6:55 PM 93.2 °F 91.3 °F 55.4 °F 28% 29.76 in 10.0 mi South 4.6 mph - N/A   Scattered Clouds
7:15 PM 93.2 °F 90.8 °F 53.6 °F 26% 29.75 in 10.0 mi SW 4.6 mph - N/A   Scattered Clouds
7:35 PM 93.2 °F 90.8 °F 53.6 °F 26% 29.74 in 10.0 mi South 4.6 mph - N/A   Clear
7:55 PM 91.4 °F 89.4 °F 55.4 °F 29% 29.75 in 10.0 mi SE 5.8 mph - N/A   Scattered Clouds
8:15 PM 89.6 °F 88.9 °F 59.0 °F 36% 29.76 in 10.0 mi Calm Calm - N/A   Scattered Clouds
8:35 PM 89.6 °F 88.9 °F 59.0 °F 36% 29.77 in 7.0 mi Calm Calm - N/A   Scattered Clouds
8:55 PM 89.6 °F 88.9 °F 59.0 °F 36% 29.78 in 5.0 mi ENE 3.5 mph - N/A   Haze
9:15 PM 87.8 °F 87.6 °F 60.8 °F 40% 29.79 in 10.0 mi ENE 4.6 mph - N/A   Overcast
9:35 PM 86.0 °F 87.3 °F 64.4 °F 48% 29.79 in 7.0 mi NE 10.4 mph - N/A   Mostly Cloudy
9:55 PM 84.2 °F 85.0 °F 62.6 °F 48% 29.78 in 10.0 mi East 6.9 mph - N/A   Scattered Clouds
10:15 PM 82.4 °F 83.4 °F 62.6 °F 51% 29.79 in 10.0 mi East 6.9 mph - N/A   Clear
10:35 PM 82.4 °F 83.4 °F 62.6 °F 51% 29.81 in 7.0 mi East 8.1 mph - N/A   Clear
10:55 PM 80.6 °F 81.8 °F 62.6 °F 54% 29.83 in 10.0 mi ENE 6.9 mph - N/A   Scattered Clouds
11:15 PM 80.6 °F 81.8 °F 62.6 °F 54% 29.84 in 10.0 mi ENE 6.9 mph - N/A   Overcast
11:35 PM 80.6 °F 81.8 °F 62.6 °F 54% 29.84 in 7.0 mi East 6.9 mph - N/A   Mostly Cloudy
11:55 PM 80.6 °F 81.8 °F 62.6 °F 54% 29.84 in 7.0 mi East 6.9 mph - N/A   Clear